Location: Beutels
(47.8767°N, 9.8584°E)
Time: 06:42:32
(UTC+00:00)

Cosmos 2221 - Pass Details

Date: 19 May 2025
Orbit: 572 x 592 km, 82.5° (Epoch: 22 June)

Event Time Altitude Azimuth Distance (km) Brightness Sun altitude
Exits shadow 20:01:26 11° 112° (ESE) 1,860 4.4 -9.3°
Maximum altitude 20:03:23 14° 84° (E) 1,662 4.4 -9.5°
Drops below altitude 10° 20:05:30 10° 53° (NE) 1,896 5.0 -9.8°
Sets 20:08:38 0° 28° (NNE) 2,798 6.2 -10.1°
